Location: Asheville, NC
(35.6000°N, 82.5500°W)
Time: 15:34:38
(UTC-04:00)

Vanguard 1 Rocket - Pass Details

Date: 12 March 2018
Orbit: 653 x 4224 km, 34.3° (Epoch: 24 June)

Event Time Altitude Azimuth Distance (km) Brightness Sun altitude
Rises 19:58:53 0° 249° (WSW) 3,873 12.2 -5.6°
Reaches altitude 10° 20:01:00 10° 247° (WSW) 3,173 11.5 -6.1°
Maximum altitude 20:09:05 75° 164° (SSE) 1,903 9.0 -7.7°
Enters shadow 20:25:08 11° 83° (E) 5,944 10.9 -11.0°
Drops below altitude 10° 20:25:35 10° 83° (E) 6,067 - -11.1°
Sets 20:31:27 0° 82° (E) 7,588 - -12.2°
